This is the latest recevied weather packets stored in our database for station/object N3SBK. If no packets are shown the sender has not sent any weather packets the latest 10 day(s).
| Time | Temp. | Humidity | Pressure | Rain* | Wind** | Luminosity | Snow |
|---|---|---|---|---|---|---|---|
| 1778028655 | 18.89° C | 53% | 1000.1 hPa | 0 mm | - | 0 W/m² | - |
| 1778028353 | 18.89° C | 52% | 1000.2 hPa | 0 mm | - | 0 W/m² | - |
| 1778028049 | 19.44° C | 52% | 1000.3 hPa | 0 mm | - | 0 W/m² | - |
| 1778027746 | 19.44° C | 51% | 1000.2 hPa | 0 mm | - | 0 W/m² | - |
| 1778027442 | 20° C | 50% | 1000.2 hPa | 0 mm | - | 0 W/m² | - |
| 1778027138 | 20° C | 49% | 999.9 hPa | 0 mm | - | 0 W/m² | - |
| 1778026834 | 20° C | 48% | 999.6 hPa | 0 mm | - | 1 W/m² | - |
| 1778026530 | 20° C | 47% | 1000 hPa | 0 mm | - | 1 W/m² | - |
| 1778026227 | 20.56° C | 47% | 999.9 hPa | 0 mm | - | 2 W/m² | - |
| 1778025925 | 20.56° C | 47% | 999.9 hPa | 0 mm | - | 3 W/m² | - |
| 1778025623 | 20.56° C | 46% | 999.9 hPa | 0 mm | - | 4 W/m² | - |
| 1778025321 | 20.56° C | 46% | 999.9 hPa | 0 mm | - | 4 W/m² | - |
| 1778025017 | 20.56° C | 46% | 1000.1 hPa | 0 mm | - | 7 W/m² | - |
| 1778024714 | 20.56° C | 46% | 999.9 hPa | 0 mm | - | 10 W/m² | - |
| 1778024410 | 21.11° C | 46% | 1000.1 hPa | 0 mm | - | 10 W/m² | - |
| 1778024108 | 21.11° C | 46% | 1000.2 hPa | 0 mm | - | 10 W/m² | - |
| 1778023805 | 21.11° C | 46% | 1000.1 hPa | 0 mm | - | 12 W/m² | - |
| 1778023503 | 21.11° C | 46% | 999.9 hPa | 0 mm | - | 15 W/m² | - |
| 1778023200 | 21.11° C | 46% | 1000 hPa | 0 mm | - | 17 W/m² | - |
| 1778022897 | 21.11° C | 46% | 999.8 hPa | 0 mm | - | 20 W/m² | - |
| 1778022596 | 21.11° C | 46% | 999.8 hPa | 0 mm | - | 23 W/m² | - |
| 1778022293 | 21.11° C | 47% | 999.8 hPa | 0 mm | - | 35 W/m² | - |
| 1778021989 | 21.67° C | 47% | 999.8 hPa | 0 mm | - | 42 W/m² | - |
| 1778021686 | 21.67° C | 45% | 999.9 hPa | 0 mm | - | 40 W/m² | - |
| 1778021382 | 21.67° C | 45% | 999.8 hPa | 0 mm | - | 46 W/m² | - |
* Rain latest hour (hover to see other rain measurements)
** Current wind speed in m/s (hover to see current wind gust speed)